Content
SEND FEEDBACK

Daily
Averages
Monthly
Summary
United States of America

HAZELWOOD, MISSOURI


Home > North America > United States > Missouri
Elevation: 570 feet     Latitude: 38 45N     Longitude: 090 22W

WEATHER
 
SELECT A DAY
Number of Records: 196,619;   Date Range: 1/1/95 - 9/16/14
 
SHARE

PRINT THIS DATA

[ ← Previous Day ]
WEATHER ALMANAC - APRIL 17, 2013
[ Next Day → ]
[ °C ]   °F
Weather ElementAverageHighLow
Temperature64.1 °F84.9 °F (3:54 pm)50 °F (12:54 am)
Dewpoint55.1 °F64.9 °F (12:54 pm)45 °F (12:54 am)
Humidity75.5 %94 % (8:41 am)47 % (6:54 pm)
Barometer29.93 in30.13 in (12:54 am)29.64 in (11:54 pm)
Wind Speed8.8 mph16.1 mph (3:54 pm)
Wind Gust25.3 mph (1:54 pm)
Weather ElementAverage
Visibility6.7 mi
Wind DirectionESE (127.9 °)

Weather ElementTotal
Precipitation---
Cooling Degree Days2.5 (Base 65)
Growing Degree Days17.5 (Base 50)
Averaged from 29 records on April 17, 2013
WEATHER CONDITIONS BREAKOUT
WIND DIRECTION BREAKOUT
WEATHER BY HOUR - APRIL 17, 2013
[ °C ]   °F
Local TimeTemperatureDewpointHumidityBarometerVisibilityWind DirectionWind SpeedGust SpeedPrecipitationEventsConditions
12:54 AM50.0 °F45.0 °F83 %30.13 in10.0 miENE (60°)5.8 mphOvercast
1:54 AM50.0 °F45.0 °F83 %30.11 in10.0 miENE (60°)6.9 mphOvercast
2:54 AM50.0 °F46.0 °F86 %30.11 in6.0 miEast (80°)5.8 mphOvercast
3:54 AM50.0 °F46.9 °F89 %30.10 in6.0 miEast (80°)3.5 mphOvercast
4:54 AM50.0 °F46.9 °F89 %30.08 in4.0 miEast (90°)6.9 mphOvercast
5:01 AM50.0 °F46.4 °F87 %30.07 in4.0 miEast (90°)6.9 mphOvercast
5:54 AM50.0 °F48.0 °F93 %30.06 in3.0 miEast (100°)5.8 mphOvercast
6:54 AM50.0 °F48.0 °F93 %30.06 in2.5 miEast (80°)6.9 mphOvercast
7:54 AM51.1 °F48.9 °F92 %30.06 in2.5 miEast (100°)6.9 mphOvercast
8:00 AM51.8 °F48.2 °F88 %30.06 in2.5 miEast (90°)5.8 mphOvercast
8:41 AM51.8 °F50.0 °F94 %30.05 in1.8 miEast (90°)8.1 mphOvercast
8:54 AM51.8 °F50.0 °F94 %30.04 in1.8 miEast (100°)8.1 mphOvercast
9:54 AM55.0 °F52.0 °F89 %30.02 in2.0 miSE (140°)8.1 mphOvercast
10:07 AM55.4 °F53.6 °F94 %30.01 in2.0 miSSE (150°)9.2 mphOvercast
10:54 AM61.0 °F55.9 °F83 %29.99 in4.0 miSE (140°)9.2 mph17.3 mphHaze
11:28 AM64.4 °F59.0 °F83 %29.97 in6.0 miSSE (150°)8.1 mphHaze
11:45 AM66.2 °F60.8 °F83 %29.97 in7.0 miSouth (170°)5.8 mphMostly Cloudy
11:54 AM68.0 °F61.0 °F78 %29.96 in8.0 miSouth (180°)9.2 mph16.1 mphMostly Cloudy
12:54 PM75.0 °F64.9 °F71 %29.91 in10.0 miSSW (200°)8.1 mphPartly Cloudy
1:54 PM77.0 °F64.0 °F64 %29.88 in10.0 miSSE (160°)13.8 mph25.3 mphClear
2:54 PM82.0 °F64.0 °F54 %29.83 in10.0 miSouth (180°)12.7 mph21.9 mphMostly Cloudy
3:54 PM84.9 °F64.0 °F49 %29.78 in10.0 miSouth (170°)16.1 mph25.3 mphScattered Clouds
4:54 PM84.9 °F63.0 °F48 %29.75 in10.0 miSSE (150°)10.4 mph20.7 mphScattered Clouds
6:54 PM82.0 °F60.1 °F47 %29.70 in10.0 miVariable6.9 mphMostly Cloudy
7:54 PM81.0 °F59.0 °F47 %29.69 in10.0 miSouth (170°)8.1 mphClear
8:54 PM80.1 °F61.0 °F52 %29.69 in10.0 miSouth (170°)10.4 mphMostly Cloudy
9:54 PM79.0 °F62.1 °F56 %29.68 in10.0 miSouth (180°)10.4 mph20.7 mphOvercast
10:54 PM78.1 °F62.1 °F58 %29.66 in10.0 miSouth (190°)15.0 mph24.2 mphOvercast
11:54 PM77.0 °F63.0 °F62 %29.64 in10.0 miSouth (190°)16.1 mph24.2 mphClear
Hourly data recorded from KSUS, located miles away from Hazelwood, Missouri







STORIES FROM OUR PARTNERS